Find STARLINK-37467

NORAD ID: 68855 Int'l Des: 2026-094S Owner: starlink Country: USA Constellation: starlink operational
LEOCIRCULARRETROGRADE

リアルタイム位置

3D地球を読み込み中...

STARLINK-37467について

説明を読み込み中...

次回通過

Passes for default location (London). Set your location on the main map for personalized predictions.

高度履歴

Loading altitude history...

軌道要素

1 68855U 26094S 26120.66670139 -.01709147 96164-3 -22790-2 0 9994
2 68855 97.2831 134.1645 0001380 81.2367 139.5973 16.06785239 1721
Epoch: Apr 30, 2026 • Age: 32 hours

現在のステータス

高度 287.8 km
速度 7.73 km/s
衛星直下点 -53.99°S, 70.98°W
タイプ internet

Most Searched